Time,TemperatureF,DewpointF,PressureIn,WindDirection,WindDirectionDegrees,WindSpeedMPH,WindSpeedGustMPH,Humidity,HourlyPrecipIn,Conditions,Clouds,dailyrainin,SoftwareType,DateUTC
2013-01-07 00:00:00,39.6,25.6,29.82,West,270,2.9,2.9,57,0.00,,---,0.09,VWS V14.01,2013-01-07 05:00:00,
2013-01-07 00:01:00,39.6,25.6,29.82,West,270,2.9,2.9,57,0.00,,---,0.00,VWS V14.01,2013-01-07 05:01:00,
2013-01-07 00:06:00,39.4,25.4,29.85,WNW,292,3.6,4.7,57,0.00,,---,0.00,VWS V14.01,2013-01-07 05:06:00,
2013-01-07 00:11:00,39.2,25.3,29.85,WNW,292,4.7,4.7,57,0.00,,---,0.00,VWS V14.01,2013-01-07 05:11:00,
2013-01-07 00:16:00,38.8,24.9,29.85,NW,315,3.8,3.8,57,0.00,,---,0.00,VWS V14.01,2013-01-07 05:16:00,
2013-01-07 00:21:00,38.7,24.8,29.85,WNW,292,2.9,4.5,57,0.00,,---,0.00,VWS V14.01,2013-01-07 05:21:00,
2013-01-07 00:26:00,38.7,24.8,29.85,NNW,338,7.4,7.4,57,0.00,,---,0.00,VWS V14.01,2013-01-07 05:26:00,
2013-01-07 00:31:00,38.5,25.0,29.85,NW,315,3.4,3.6,58,0.00,,---,0.00,VWS V14.01,2013-01-07 05:31:00,
2013-01-07 00:36:00,38.3,24.8,29.85,WNW,292,5.6,5.6,58,0.00,,---,0.00,VWS V14.01,2013-01-07 05:36:00,
2013-01-07 00:41:00,38.1,24.7,29.85,WNW,292,4.9,4.9,58,0.00,,---,0.00,VWS V14.01,2013-01-07 05:41:00,
2013-01-07 00:46:00,38.1,24.7,29.85,WNW,292,3.4,3.4,58,0.00,,---,0.00,VWS V14.01,2013-01-07 05:46:00,
2013-01-07 00:51:00,38.1,24.7,29.85,WNW,292,3.8,3.8,58,0.00,,---,0.00,VWS V14.01,2013-01-07 05:51:00,
2013-01-07 00:56:00,37.9,24.5,29.85,WNW,292,2.5,5.4,58,0.00,,---,0.00,VWS V14.01,2013-01-07 05:56:00,
2013-01-07 01:01:00,37.9,24.5,29.85,NW,315,2.9,3.8,58,0.00,,---,0.00,VWS V14.01,2013-01-07 06:01:00,
2013-01-07 01:06:00,37.6,24.6,29.85,NW,315,2.7,3.8,59,0.00,,---,0.00,VWS V14.01,2013-01-07 06:06:00,
2013-01-07 01:11:00,37.2,24.2,29.88,NW,315,1.1,2.9,59,0.00,,---,0.00,VWS V14.01,2013-01-07 06:11:00,
2013-01-07 01:16:00,37.0,24.1,29.88,NNW,338,3.8,3.8,59,0.00,,---,0.00,VWS V14.01,2013-01-07 06:16:00,
2013-01-07 01:21:00,37.0,24.5,29.88,WNW,292,2.7,2.7,60,0.00,,---,0.00,VWS V14.01,2013-01-07 06:21:00,
2013-01-07 01:26:00,36.9,24.3,29.88,NW,315,2.5,2.5,60,0.00,,---,0.00,VWS V14.01,2013-01-07 06:26:00,
2013-01-07 01:31:00,36.9,24.3,29.88,WNW,292,3.4,3.4,60,0.00,,---,0.00,VWS V14.01,2013-01-07 06:31:00,
2013-01-07 01:36:00,36.7,24.1,29.88,WNW,292,2.9,2.9,60,0.00,,---,0.00,VWS V14.01,2013-01-07 06:36:00,
2013-01-07 01:41:00,36.7,24.5,29.88,NW,315,3.1,3.1,61,0.00,,---,0.00,VWS V14.01,2013-01-07 06:41:00,
2013-01-07 01:46:00,36.3,24.2,29.88,NNW,338,6.0,6.0,61,0.00,,---,0.00,VWS V14.01,2013-01-07 06:46:00,
2013-01-07 01:51:00,36.5,24.3,29.88,NW,315,1.3,2.0,61,0.00,,---,0.00,VWS V14.01,2013-01-07 06:51:00,
2013-01-07 01:56:00,36.3,24.2,29.88,NW,315,1.3,2.7,61,0.00,,---,0.00,VWS V14.01,2013-01-07 06:56:00,
2013-01-07 02:00:00,36.3,24.6,29.88,NW,315,3.1,4.0,62,0.00,,---,0.00,VWS V14.01,2013-01-07 07:00:00,
2013-01-07 02:05:00,36.3,24.2,29.88,NW,315,2.0,2.9,61,0.00,,---,0.00,VWS V14.01,2013-01-07 07:05:00,
2013-01-07 02:10:00,36.1,24.4,29.88,NNW,338,2.9,2.9,62,0.00,,---,0.00,VWS V14.01,2013-01-07 07:10:00,
2013-01-07 02:15:00,36.1,24.4,29.88,NW,315,2.5,2.5,62,0.00,,---,0.00,VWS V14.01,2013-01-07 07:15:00,
2013-01-07 02:20:00,36.3,24.6,29.88,NW,315,4.9,4.9,62,0.00,,---,0.00,VWS V14.01,2013-01-07 07:20:00,
2013-01-07 02:25:00,36.3,24.6,29.88,WNW,292,4.3,5.4,62,0.00,,---,0.00,VWS V14.01,2013-01-07 07:25:00,
2013-01-07 02:31:00,36.3,24.6,29.88,WNW,292,2.0,2.2,62,0.00,,---,0.00,VWS V14.01,2013-01-07 07:31:00,
2013-01-07 02:35:00,36.1,24.4,29.91,WNW,292,2.7,2.7,62,0.00,,---,0.00,VWS V14.01,2013-01-07 07:35:00,
2013-01-07 02:40:00,36.0,24.2,29.91,WNW,292,2.7,2.7,62,0.00,,---,0.00,VWS V14.01,2013-01-07 07:40:00,
2013-01-07 02:45:00,35.8,24.0,29.91,West,270,2.5,2.5,62,0.00,,---,0.00,VWS V14.01,2013-01-07 07:45:00,
2013-01-07 02:50:00,35.6,23.9,29.91,NW,315,2.2,2.2,62,0.00,,---,0.00,VWS V14.01,2013-01-07 07:50:00,
2013-01-07 02:55:00,35.4,24.1,29.91,NW,315,2.9,2.9,63,0.00,,---,0.00,VWS V14.01,2013-01-07 07:55:00,
2013-01-07 03:00:00,35.4,24.1,29.91,NW,315,3.6,3.6,63,0.00,,---,0.00,VWS V14.01,2013-01-07 08:00:00,
2013-01-07 03:05:00,35.2,23.9,29.91,WNW,292,4.0,4.0,63,0.00,,---,0.00,VWS V14.01,2013-01-07 08:05:00,
2013-01-07 03:10:00,35.4,24.1,29.91,NNW,338,4.9,4.9,63,0.00,,---,0.00,VWS V14.01,2013-01-07 08:10:00,
2013-01-07 03:15:00,35.4,24.1,29.91,NW,315,2.0,2.5,63,0.00,,---,0.00,VWS V14.01,2013-01-07 08:15:00,
2013-01-07 03:20:00,35.6,24.3,29.91,WNW,292,2.9,2.9,63,0.00,,---,0.00,VWS V14.01,2013-01-07 08:20:00,
2013-01-07 03:25:00,35.6,24.3,29.91,WNW,292,2.7,3.4,63,0.00,,---,0.00,VWS V14.01,2013-01-07 08:25:00,
2013-01-07 03:30:00,35.6,24.3,29.91,NW,315,2.7,3.4,63,0.00,,---,0.00,VWS V14.01,2013-01-07 08:30:00,
2013-01-07 03:35:00,35.4,24.1,29.91,NNW,338,3.1,3.1,63,0.00,,---,0.00,VWS V14.01,2013-01-07 08:35:00,
2013-01-07 03:41:00,35.4,24.1,29.91,NNW,338,5.6,5.6,63,0.00,,---,0.00,VWS V14.01,2013-01-07 08:41:00,
2013-01-07 03:46:00,35.4,24.1,29.91,NW,315,2.9,3.1,63,0.00,,---,0.00,VWS V14.01,2013-01-07 08:46:00,
2013-01-07 03:50:00,35.4,24.1,29.91,WNW,292,2.9,3.1,63,0.00,,---,0.00,VWS V14.01,2013-01-07 08:50:00,
2013-01-07 03:55:00,35.2,24.3,29.91,NW,315,3.1,3.1,64,0.00,,---,0.00,VWS V14.01,2013-01-07 08:55:00,
2013-01-07 04:00:00,35.2,24.3,29.91,NW,315,6.5,6.5,64,0.00,,---,0.00,VWS V14.01,2013-01-07 09:00:00,
2013-01-07 04:05:00,35.4,24.5,29.91,NW,315,0.9,2.2,64,0.00,,---,0.00,VWS V14.01,2013-01-07 09:05:00,
2013-01-07 04:10:00,35.4,24.5,29.91,WNW,292,3.1,3.6,64,0.00,,---,0.00,VWS V14.01,2013-01-07 09:10:00,
2013-01-07 04:15:00,35.6,24.6,29.91,WNW,292,4.0,4.0,64,0.00,,---,0.00,VWS V14.01,2013-01-07 09:15:00,
2013-01-07 04:20:00,35.6,24.3,29.91,NW,315,4.3,4.9,63,0.00,,---,0.00,VWS V14.01,2013-01-07 09:20:00,
2013-01-07 04:25:00,35.6,24.6,29.91,NW,315,3.4,8.5,64,0.00,,---,0.00,VWS V14.01,2013-01-07 09:25:00,
2013-01-07 04:30:00,35.8,24.8,29.91,WNW,292,2.9,5.6,64,0.00,,---,0.00,VWS V14.01,2013-01-07 09:30:00,
2013-01-07 04:35:00,35.6,24.3,29.91,NW,315,2.5,2.5,63,0.00,,---,0.00,VWS V14.01,2013-01-07 09:35:00,
2013-01-07 04:40:00,35.6,24.6,29.91,NNW,338,3.4,4.9,64,0.00,,---,0.00,VWS V14.01,2013-01-07 09:40:00,
2013-01-07 04:45:00,35.6,24.6,29.91,NNW,338,3.8,4.3,64,0.00,,---,0.00,VWS V14.01,2013-01-07 09:45:00,
2013-01-07 04:50:00,35.6,24.6,29.94,West,270,4.9,4.9,64,0.00,,---,0.00,VWS V14.01,2013-01-07 09:50:00,
2013-01-07 04:55:00,35.6,24.6,29.94,NW,315,2.5,3.1,64,0.00,,---,0.00,VWS V14.01,2013-01-07 09:55:00,
2013-01-07 05:00:00,35.4,24.5,29.94,WNW,292,2.5,3.1,64,0.00,,---,0.00,VWS V14.01,2013-01-07 10:00:00,
2013-01-07 05:05:00,35.6,24.6,29.94,WNW,292,2.5,2.9,64,0.00,,---,0.00,VWS V14.01,2013-01-07 10:05:00,
2013-01-07 05:10:00,35.6,24.6,29.94,NNW,338,2.7,3.4,64,0.00,,---,0.00,VWS V14.01,2013-01-07 10:10:00,
2013-01-07 05:15:00,35.4,24.5,29.94,WNW,292,4.0,4.0,64,0.00,,---,0.00,VWS V14.01,2013-01-07 10:15:00,
2013-01-07 05:20:00,35.6,24.6,29.94,WNW,292,4.3,4.3,64,0.00,,---,0.00,VWS V14.01,2013-01-07 10:20:00,
2013-01-07 05:25:00,35.4,24.5,29.94,WNW,292,4.0,4.0,64,0.00,,---,0.00,VWS V14.01,2013-01-07 10:25:00,
2013-01-07 05:30:00,35.4,24.5,29.94,WNW,292,2.0,2.0,64,0.00,,---,0.00,VWS V14.01,2013-01-07 10:30:00,
2013-01-07 05:35:00,35.2,24.3,29.94,WNW,292,2.5,3.8,64,0.00,,---,0.00,VWS V14.01,2013-01-07 10:35:00,
2013-01-07 05:40:00,35.1,24.1,29.94,NW,315,3.6,3.6,64,0.00,,---,0.00,VWS V14.01,2013-01-07 10:40:00,
2013-01-07 05:45:00,34.9,24.3,29.94,NNW,338,4.0,4.0,65,0.00,,---,0.00,VWS V14.01,2013-01-07 10:45:00,
2013-01-07 05:50:00,34.9,24.3,29.97,WNW,292,1.6,2.0,65,0.00,,---,0.00,VWS V14.01,2013-01-07 10:50:00,
2013-01-07 05:55:00,34.9,24.3,29.97,NW,315,2.9,2.9,65,0.00,,---,0.00,VWS V14.01,2013-01-07 10:55:00,
2013-01-07 06:00:00,34.7,24.1,29.97,North,0,3.8,3.8,65,0.00,,---,0.00,VWS V14.01,2013-01-07 11:00:00,
2013-01-07 06:05:00,34.7,24.1,29.97,WNW,292,4.7,4.7,65,0.00,,---,0.00,VWS V14.01,2013-01-07 11:05:00,
2013-01-07 06:10:00,34.5,24.4,29.97,NNW,338,3.8,3.8,66,0.00,,---,0.00,VWS V14.01,2013-01-07 11:10:00,
2013-01-07 06:15:00,34.5,24.4,29.97,NW,315,2.9,2.9,66,0.00,,---,0.00,VWS V14.01,2013-01-07 11:15:00,
2013-01-07 06:20:00,34.5,24.4,29.97,NW,315,2.0,2.0,66,0.00,,---,0.00,VWS V14.01,2013-01-07 11:20:00,
2013-01-07 06:25:00,34.7,24.9,29.97,NNW,338,4.0,6.0,67,0.00,,---,0.00,VWS V14.01,2013-01-07 11:25:00,
2013-01-07 06:30:00,34.9,24.7,29.97,NW,315,5.6,5.6,66,0.00,,---,0.00,VWS V14.01,2013-01-07 11:30:00,
2013-01-07 06:35:00,34.9,24.7,30.00,NW,315,4.0,4.0,66,0.00,,---,0.00,VWS V14.01,2013-01-07 11:35:00,
2013-01-07 06:40:00,34.9,24.7,30.00,NNW,338,4.0,4.0,66,0.00,,---,0.00,VWS V14.01,2013-01-07 11:40:00,
2013-01-07 06:45:00,34.9,24.7,30.00,NW,315,3.4,3.4,66,0.00,,---,0.00,VWS V14.01,2013-01-07 11:45:00,
2013-01-07 06:50:00,34.9,24.7,30.00,NW,315,2.5,3.4,66,0.00,,---,0.00,VWS V14.01,2013-01-07 11:50:00,
2013-01-07 06:55:00,34.9,24.7,30.00,NNW,338,4.0,4.0,66,0.00,,---,0.00,VWS V14.01,2013-01-07 11:55:00,
2013-01-07 07:00:00,34.5,24.4,30.00,NNW,338,2.0,2.5,66,0.00,,---,0.00,VWS V14.01,2013-01-07 12:00:00,
2013-01-07 07:05:00,34.3,24.5,30.00,West,270,3.8,3.8,67,0.00,,---,0.00,VWS V14.01,2013-01-07 12:05:00,
2013-01-07 07:10:00,34.3,24.5,30.00,NNW,338,3.4,3.4,67,0.00,,---,0.00,VWS V14.01,2013-01-07 12:10:00,
2013-01-07 07:15:00,34.3,24.2,30.00,NW,315,4.0,4.0,66,0.00,,---,0.00,VWS V14.01,2013-01-07 12:15:00,
2013-01-07 07:20:00,34.2,24.0,30.03,NNW,338,2.9,2.9,66,0.00,,---,0.00,VWS V14.01,2013-01-07 12:20:00,
2013-01-07 07:25:00,34.3,24.5,30.03,WNW,292,3.4,3.6,67,0.00,,---,0.00,VWS V14.01,2013-01-07 12:25:00,
2013-01-07 07:30:00,34.3,24.2,30.03,NNW,338,4.0,4.9,66,0.00,,---,0.00,VWS V14.01,2013-01-07 12:30:00,
2013-01-07 07:35:00,34.5,24.4,30.03,WNW,292,2.7,3.6,66,0.00,,---,0.00,VWS V14.01,2013-01-07 12:35:00,
2013-01-07 07:40:00,34.5,24.4,30.03,NNW,338,3.1,4.7,66,0.00,,---,0.00,VWS V14.01,2013-01-07 12:40:00,
2013-01-07 07:45:00,34.5,24.4,30.03,NNW,338,3.8,3.8,66,0.00,,---,0.00,VWS V14.01,2013-01-07 12:45:00,
2013-01-07 07:50:00,34.5,25.1,30.03,NNW,338,3.6,3.6,68,0.00,,---,0.00,VWS V14.01,2013-01-07 12:50:00,
2013-01-07 07:55:00,34.7,24.9,30.03,WNW,292,5.4,5.4,67,0.00,,---,0.00,VWS V14.01,2013-01-07 12:55:00,
2013-01-07 08:00:00,34.9,25.0,30.03,NNW,338,3.4,3.4,67,0.00,,---,0.00,VWS V14.01,2013-01-07 13:00:00,
2013-01-07 08:05:00,35.2,25.4,30.03,NNW,338,2.0,3.6,67,0.00,,---,0.00,VWS V14.01,2013-01-07 13:05:00,
2013-01-07 08:10:00,35.4,25.6,30.03,WNW,292,2.7,2.7,67,0.00,,---,0.00,VWS V14.01,2013-01-07 13:10:00,
2013-01-07 08:15:00,35.6,25.7,30.03,WNW,292,3.8,3.8,67,0.00,,---,0.00,VWS V14.01,2013-01-07 13:15:00,
2013-01-07 08:20:00,35.8,25.5,30.06,WSW,248,2.7,2.7,66,0.00,,---,0.00,VWS V14.01,2013-01-07 13:20:00,
2013-01-07 08:25:00,36.1,25.9,30.06,NW,315,4.7,4.7,66,0.00,,---,0.00,VWS V14.01,2013-01-07 13:25:00,
2013-01-07 08:30:00,36.3,26.1,30.06,NNW,338,6.5,6.5,66,0.00,,---,0.00,VWS V14.01,2013-01-07 13:30:00,
2013-01-07 08:35:00,36.7,26.4,30.06,NNW,338,2.7,3.6,66,0.00,,---,0.00,VWS V14.01,2013-01-07 13:35:00,
2013-01-07 08:40:00,37.0,26.4,30.06,NW,315,4.0,4.0,65,0.00,,---,0.00,VWS V14.01,2013-01-07 13:40:00,
2013-01-07 08:45:00,37.0,26.4,30.06,NW,315,4.3,4.3,65,0.00,,---,0.00,VWS V14.01,2013-01-07 13:45:00,
2013-01-07 08:50:00,37.6,26.9,30.06,NW,315,1.6,2.2,65,0.00,,---,0.00,VWS V14.01,2013-01-07 13:50:00,
2013-01-07 08:55:00,38.1,27.0,30.06,NW,315,3.4,3.4,64,0.00,,---,0.00,VWS V14.01,2013-01-07 13:55:00,
2013-01-07 09:00:00,38.5,27.4,30.06,NNW,338,0.9,0.9,64,0.00,,---,0.00,VWS V14.01,2013-01-07 14:00:00,
2013-01-07 09:05:00,39.0,27.5,30.06,NNW,338,3.6,3.6,63,0.00,,---,0.00,VWS V14.01,2013-01-07 14:05:00,
2013-01-07 09:10:00,39.4,27.5,30.06,NNE,22,9.4,9.4,62,0.00,,---,0.00,VWS V14.01,2013-01-07 14:10:00,
2013-01-07 09:15:00,39.7,27.4,30.06,NNW,338,5.4,5.4,61,0.00,,---,0.00,VWS V14.01,2013-01-07 14:15:00,
2013-01-07 09:20:00,40.3,27.9,30.09,NNE,22,5.4,5.4,61,0.00,,---,0.00,VWS V14.01,2013-01-07 14:20:00,
2013-01-07 09:25:00,40.8,28.0,30.09,NNW,338,8.1,8.1,60,0.00,,---,0.00,VWS V14.01,2013-01-07 14:25:00,
2013-01-07 09:30:00,41.4,27.7,30.09,NNW,338,3.8,3.8,58,0.00,,---,0.00,VWS V14.01,2013-01-07 14:30:00,
2013-01-07 09:35:00,42.3,28.5,30.09,ENE,68,2.7,2.7,58,0.00,,---,0.00,VWS V14.01,2013-01-07 14:35:00,
2013-01-07 09:40:00,43.0,28.4,30.09,NNW,338,3.4,3.4,56,0.00,,---,0.00,VWS V14.01,2013-01-07 14:40:00,
2013-01-07 09:45:00,43.9,28.8,30.09,NNW,338,6.0,6.0,55,0.00,,---,0.00,VWS V14.01,2013-01-07 14:45:00,
2013-01-07 09:50:00,44.8,28.7,30.09,NNE,22,0.0,6.0,53,0.00,,---,0.00,VWS V14.01,2013-01-07 14:50:00,
2013-01-07 09:55:00,45.1,28.6,30.09,NNW,338,4.9,4.9,52,0.00,,---,0.00,VWS V14.01,2013-01-07 14:55:00,
2013-01-07 10:00:00,45.9,28.8,30.09,NNW,338,4.3,4.3,51,0.00,,---,0.00,VWS V14.01,2013-01-07 15:00:00,
2013-01-07 10:05:00,46.8,28.6,30.09,NW,315,2.7,7.2,49,0.00,,---,0.00,VWS V14.01,2013-01-07 15:05:00,
2013-01-07 10:10:00,47.5,30.3,30.09,ENE,68,2.9,5.4,51,0.00,,---,0.00,VWS V14.01,2013-01-07 15:10:00,
2013-01-07 10:15:00,48.0,30.8,30.09,NNE,22,3.4,3.4,51,0.00,,---,0.00,VWS V14.01,2013-01-07 15:15:00,
2013-01-07 10:20:00,47.3,28.6,30.09,NNE,22,6.0,6.0,48,0.00,,---,0.00,VWS V14.01,2013-01-07 15:20:00,
2013-01-07 10:25:00,47.1,28.5,30.09,NNW,338,3.8,4.0,48,0.00,,---,0.00,VWS V14.01,2013-01-07 15:25:00,
2013-01-07 10:30:00,47.7,28.4,30.09,NNE,22,5.6,5.6,47,0.00,,---,0.00,VWS V14.01,2013-01-07 15:30:00,
2013-01-07 10:35:00,48.2,29.5,30.12,NNE,22,3.4,6.0,48,0.00,,---,0.00,VWS V14.01,2013-01-07 15:35:00,
2013-01-07 10:40:00,47.8,27.5,30.12,NNW,338,3.8,3.8,45,0.00,,---,0.00,VWS V14.01,2013-01-07 15:40:00,
2013-01-07 10:45:00,48.6,29.3,30.12,NW,315,9.0,9.0,47,0.00,,---,0.00,VWS V14.01,2013-01-07 15:45:00,
2013-01-07 10:50:00,48.7,28.9,30.12,ENE,68,4.0,4.0,46,0.00,,---,0.00,VWS V14.01,2013-01-07 15:50:00,
2013-01-07 10:55:00,48.9,28.0,30.12,ENE,68,3.1,3.1,44,0.00,,---,0.00,VWS V14.01,2013-01-07 15:55:00,
2013-01-07 11:00:00,49.3,29.4,30.12,NNW,338,4.9,7.6,46,0.00,,---,0.00,VWS V14.01,2013-01-07 16:00:00,
2013-01-07 11:05:00,48.7,27.3,30.12,NNW,338,4.9,4.9,43,0.00,,---,0.00,VWS V14.01,2013-01-07 16:05:00,
2013-01-07 11:10:00,48.7,27.3,30.12,NW,315,2.7,3.1,43,0.00,,---,0.00,VWS V14.01,2013-01-07 16:10:00,
2013-01-07 11:15:00,48.6,26.5,30.12,NNW,338,3.8,5.8,42,0.00,,---,0.00,VWS V14.01,2013-01-07 16:15:00,
2013-01-07 11:20:00,48.2,26.2,30.12,NNW,338,4.7,4.7,42,0.00,,---,0.00,VWS V14.01,2013-01-07 16:20:00,
2013-01-07 11:25:00,49.1,28.1,30.12,NE,45,4.3,4.3,44,0.00,,---,0.00,VWS V14.01,2013-01-07 16:25:00,
2013-01-07 11:30:00,49.1,26.4,30.12,NNE,22,6.3,6.3,41,0.00,,---,0.00,VWS V14.01,2013-01-07 16:30:00,
2013-01-07 11:35:00,49.5,26.8,30.12,ENE,68,3.6,6.0,41,0.00,,---,0.00,VWS V14.01,2013-01-07 16:35:00,
2013-01-07 11:40:00,50.2,28.0,30.12,ENE,68,5.6,5.6,42,0.00,,---,0.00,VWS V14.01,2013-01-07 16:40:00,
2013-01-07 11:45:00,49.8,27.7,30.12,NNE,22,3.8,3.8,42,0.00,,---,0.00,VWS V14.01,2013-01-07 16:45:00,
2013-01-07 11:50:00,50.2,28.0,30.12,NNW,338,4.0,4.0,42,0.00,,---,0.00,VWS V14.01,2013-01-07 16:50:00,
2013-01-07 11:55:00,50.5,27.7,30.12,North,0,2.9,2.9,41,0.00,,---,0.00,VWS V14.01,2013-01-07 16:55:00,
2013-01-07 12:00:00,50.5,27.7,30.12,NNW,338,3.1,3.1,41,0.00,,---,0.00,VWS V14.01,2013-01-07 17:00:00,
2013-01-07 12:05:00,50.7,27.9,30.12,NNE,22,7.6,7.6,41,0.00,,---,0.00,VWS V14.01,2013-01-07 17:05:00,
2013-01-07 12:10:00,50.4,27.6,30.12,NNW,338,1.6,2.5,41,0.00,,---,0.00,VWS V14.01,2013-01-07 17:10:00,
2013-01-07 12:15:00,50.5,27.1,30.12,WNW,292,5.4,5.4,40,0.00,,---,0.00,VWS V14.01,2013-01-07 17:15:00,
2013-01-07 12:20:00,50.5,27.1,30.12,NNE,22,9.8,9.8,40,0.00,,---,0.00,VWS V14.01,2013-01-07 17:20:00,
2013-01-07 12:25:00,50.2,26.8,30.12,NE,45,3.6,3.6,40,0.00,,---,0.00,VWS V14.01,2013-01-07 17:25:00,
2013-01-07 12:30:00,50.7,27.3,30.12,NNW,338,5.6,5.6,40,0.00,,---,0.00,VWS V14.01,2013-01-07 17:30:00,
2013-01-07 12:35:00,51.1,28.2,30.12,NNW,338,7.4,7.4,41,0.00,,---,0.00,VWS V14.01,2013-01-07 17:35:00,
2013-01-07 12:40:00,50.9,26.8,30.12,NNE,22,2.9,3.4,39,0.00,,---,0.00,VWS V14.01,2013-01-07 17:40:00,
2013-01-07 12:45:00,50.5,27.1,30.12,NNE,22,2.5,2.5,40,0.00,,---,0.00,VWS V14.01,2013-01-07 17:45:00,
2013-01-07 12:50:00,51.1,27.6,30.12,NNW,338,2.7,2.9,40,0.00,,---,0.00,VWS V14.01,2013-01-07 17:50:00,
2013-01-07 12:55:00,49.8,26.5,30.12,WNW,292,12.3,12.3,40,0.00,,---,0.00,VWS V14.01,2013-01-07 17:55:00,
2013-01-07 13:00:00,50.0,26.6,30.12,NNW,338,7.2,7.2,40,0.00,,---,0.00,VWS V14.01,2013-01-07 18:00:00,
2013-01-07 13:05:00,50.2,26.2,30.12,NW,315,5.8,6.3,39,0.00,,---,0.00,VWS V14.01,2013-01-07 18:05:00,
2013-01-07 13:10:00,50.2,26.8,30.12,NNW,338,3.1,3.6,40,0.00,,---,0.00,VWS V14.01,2013-01-07 18:10:00,
2013-01-07 13:15:00,49.3,26.6,30.12,NW,315,6.3,6.3,41,0.00,,---,0.00,VWS V14.01,2013-01-07 18:15:00,
2013-01-07 13:20:00,49.3,27.2,30.12,WNW,292,5.6,6.0,42,0.00,,---,0.00,VWS V14.01,2013-01-07 18:20:00,
2013-01-07 13:25:00,49.6,27.5,30.12,WNW,292,7.6,7.6,42,0.00,,---,0.00,VWS V14.01,2013-01-07 18:25:00,
2013-01-07 13:30:00,49.1,26.4,30.12,WNW,292,4.3,4.3,41,0.00,,---,0.00,VWS V14.01,2013-01-07 18:30:00,
2013-01-07 13:35:00,48.6,26.0,30.15,NNW,338,4.3,4.3,41,0.00,,---,0.00,VWS V14.01,2013-01-07 18:35:00,
2013-01-07 13:40:00,49.5,26.2,30.15,ENE,68,6.3,6.3,40,0.00,,---,0.00,VWS V14.01,2013-01-07 18:40:00,
2013-01-07 13:45:00,49.8,27.1,30.15,West,270,2.5,4.9,41,0.00,,---,0.00,VWS V14.01,2013-01-07 18:45:00,
2013-01-07 13:50:00,49.3,26.0,30.12,NNW,338,2.5,2.9,40,0.00,,---,0.00,VWS V14.01,2013-01-07 18:50:00,
2013-01-07 13:55:00,48.7,25.5,30.12,NNW,338,2.9,2.9,40,0.00,,---,0.00,VWS V14.01,2013-01-07 18:55:00,
2013-01-07 14:00:00,48.4,25.2,30.12,NNW,338,4.0,4.0,40,0.00,,---,0.00,VWS V14.01,2013-01-07 19:00:00,
2013-01-07 14:05:00,48.7,25.5,30.15,NNE,22,3.4,3.4,40,0.00,,---,0.00,VWS V14.01,2013-01-07 19:05:00,
2013-01-07 14:10:00,49.1,25.8,30.15,NNW,338,6.0,6.0,40,0.00,,---,0.00,VWS V14.01,2013-01-07 19:10:00,
2013-01-07 14:15:00,49.1,25.8,30.15,NNW,338,5.6,5.6,40,0.00,,---,0.00,VWS V14.01,2013-01-07 19:15:00,
2013-01-07 14:20:00,49.6,26.9,30.12,West,270,3.6,3.6,41,0.00,,---,0.00,VWS V14.01,2013-01-07 19:20:00,
2013-01-07 14:25:00,49.8,26.5,30.12,NNE,22,2.9,2.9,40,0.00,,---,0.00,VWS V14.01,2013-01-07 19:25:00,
2013-01-07 14:30:00,49.6,25.7,30.12,NE,45,2.9,4.9,39,0.00,,---,0.00,VWS V14.01,2013-01-07 19:30:00,
2013-01-07 14:35:00,49.5,25.5,30.15,NNE,22,2.5,2.5,39,0.00,,---,0.00,VWS V14.01,2013-01-07 19:35:00,
2013-01-07 14:40:00,49.6,25.7,30.15,West,270,2.0,2.0,39,0.00,,---,0.00,VWS V14.01,2013-01-07 19:40:00,
2013-01-07 14:45:00,49.6,25.7,30.15,NNE,22,1.3,2.7,39,0.00,,---,0.00,VWS V14.01,2013-01-07 19:45:00,
2013-01-07 14:50:00,49.6,25.7,30.15,NNW,338,5.6,5.6,39,0.00,,---,0.00,VWS V14.01,2013-01-07 19:50:00,
2013-01-07 14:55:00,49.6,25.1,30.15,NW,315,7.4,7.4,38,0.00,,---,0.00,VWS V14.01,2013-01-07 19:55:00,
2013-01-07 15:00:00,49.6,26.3,30.15,NNE,22,3.4,3.4,40,0.00,,---,0.00,VWS V14.01,2013-01-07 20:00:00,
2013-01-07 15:05:00,49.6,25.7,30.15,ENE,68,0.9,0.9,39,0.00,,---,0.00,VWS V14.01,2013-01-07 20:05:00,
2013-01-07 15:10:00,49.5,25.5,30.15,North,0,2.9,2.9,39,0.00,,---,0.00,VWS V14.01,2013-01-07 20:10:00,
2013-01-07 15:15:00,49.5,26.2,30.15,WNW,292,6.0,6.0,40,0.00,,---,0.00,VWS V14.01,2013-01-07 20:15:00,
2013-01-07 15:19:00,49.3,26.0,30.15,NE,45,2.5,2.5,40,0.00,,---,0.00,VWS V14.01,2013-01-07 20:19:00,
2013-01-07 15:24:00,49.1,25.8,30.15,ENE,68,2.0,2.0,40,0.00,,---,0.00,VWS V14.01,2013-01-07 20:24:00,
2013-01-07 15:29:00,48.7,25.5,30.15,NW,315,1.3,5.8,40,0.00,,---,0.00,VWS V14.01,2013-01-07 20:29:00,
2013-01-07 15:34:00,48.6,25.4,30.15,NE,45,1.6,1.6,40,0.00,,---,0.00,VWS V14.01,2013-01-07 20:34:00,
2013-01-07 15:39:00,48.4,25.2,30.15,NNW,338,2.2,2.2,40,0.00,,---,0.00,VWS V14.01,2013-01-07 20:39:00,
2013-01-07 15:44:00,48.0,24.9,30.15,NNW,338,2.7,2.7,40,0.00,,---,0.00,VWS V14.01,2013-01-07 20:44:00,
2013-01-07 15:49:00,47.8,24.7,30.15,NNW,338,2.0,7.2,40,0.00,,---,0.00,VWS V14.01,2013-01-07 20:49:00,
2013-01-07 15:54:00,47.5,24.4,30.15,NNW,338,2.7,2.7,40,0.00,,---,0.00,VWS V14.01,2013-01-07 20:54:00,
2013-01-07 15:59:00,47.3,24.2,30.15,NNW,338,2.0,2.0,40,0.00,,---,0.00,VWS V14.01,2013-01-07 20:59:00,
2013-01-07 16:04:00,46.9,23.9,30.15,NNE,22,1.6,3.8,40,0.00,,---,0.00,VWS V14.01,2013-01-07 21:04:00,
2013-01-07 16:09:00,46.6,23.6,30.15,North,0,2.0,2.0,40,0.00,,---,0.00,VWS V14.01,2013-01-07 21:09:00,
2013-01-07 16:14:00,46.6,23.6,30.15,WSW,248,3.8,3.8,40,0.00,,---,0.00,VWS V14.01,2013-01-07 21:14:00,
2013-01-07 16:19:00,46.2,23.8,30.15,West,270,2.0,2.9,41,0.00,,---,0.00,VWS V14.01,2013-01-07 21:19:00,
2013-01-07 16:24:00,46.0,23.7,30.15,WNW,292,4.0,4.0,41,0.00,,---,0.00,VWS V14.01,2013-01-07 21:24:00,
2013-01-07 16:29:00,45.9,23.5,30.15,NNW,338,4.0,4.0,41,0.00,,---,0.00,VWS V14.01,2013-01-07 21:29:00,
2013-01-07 16:34:00,45.5,23.2,30.18,West,270,6.0,6.0,41,0.00,,---,0.00,VWS V14.01,2013-01-07 21:34:00,
2013-01-07 16:39:00,45.3,23.0,30.18,West,270,1.3,1.3,41,0.00,,---,0.00,VWS V14.01,2013-01-07 21:39:00,
2013-01-07 16:44:00,44.8,23.1,30.18,WNW,292,4.9,4.9,42,0.00,,---,0.00,VWS V14.01,2013-01-07 21:44:00,
2013-01-07 16:49:00,44.2,22.6,30.18,WNW,292,2.7,3.8,42,0.00,,---,0.00,VWS V14.01,2013-01-07 21:49:00,
2013-01-07 16:54:00,44.1,22.5,30.18,NW,315,0.0,0.0,42,0.00,,---,0.00,VWS V14.01,2013-01-07 21:54:00,
2013-01-07 16:59:00,43.5,22.5,30.18,WNW,292,0.0,1.6,43,0.00,,---,0.00,VWS V14.01,2013-01-07 21:59:00,
2013-01-07 17:04:00,43.2,22.2,30.18,West,270,1.3,1.3,43,0.00,,---,0.00,VWS V14.01,2013-01-07 22:04:00,
2013-01-07 17:09:00,42.8,21.9,30.18,WNW,292,0.0,0.0,43,0.00,,---,0.00,VWS V14.01,2013-01-07 22:09:00,
2013-01-07 17:14:00,42.4,22.1,30.18,WNW,292,0.0,0.0,44,0.00,,---,0.00,VWS V14.01,2013-01-07 22:14:00,
2013-01-07 17:19:00,42.3,21.9,30.18,WNW,292,0.0,0.0,44,0.00,,---,0.00,VWS V14.01,2013-01-07 22:19:00,
2013-01-07 17:24:00,41.7,21.4,30.18,NW,315,0.0,0.0,44,0.00,,---,0.00,VWS V14.01,2013-01-07 22:24:00,
2013-01-07 17:29:00,41.4,21.1,30.18,NW,315,0.0,0.0,44,0.00,,---,0.00,VWS V14.01,2013-01-07 22:29:00,
2013-01-07 17:34:00,41.2,20.9,30.18,NW,315,0.0,0.0,44,0.00,,---,0.00,VWS V14.01,2013-01-07 22:34:00,
2013-01-07 17:39:00,41.0,21.3,30.18,SSW,202,0.0,0.0,45,0.00,,---,0.00,VWS V14.01,2013-01-07 22:39:00,
2013-01-07 17:44:00,40.5,21.3,30.18,NNW,338,0.0,0.0,46,0.00,,---,0.00,VWS V14.01,2013-01-07 22:44:00,
2013-01-07 17:49:00,40.3,21.2,30.18,SW,225,0.0,0.0,46,0.00,,---,0.00,VWS V14.01,2013-01-07 22:49:00,
2013-01-07 17:54:00,39.9,21.3,30.18,WNW,292,0.0,0.0,47,0.00,,---,0.00,VWS V14.01,2013-01-07 22:54:00,
2013-01-07 17:59:00,39.6,21.5,30.18,West,270,1.3,1.3,48,0.00,,---,0.00,VWS V14.01,2013-01-07 22:59:00,
2013-01-07 18:04:00,39.0,21.0,30.18,West,270,0.0,0.0,48,0.00,,---,0.00,VWS V14.01,2013-01-07 23:04:00,
2013-01-07 18:09:00,38.8,21.3,30.18,West,270,0.0,0.0,49,0.00,,---,0.00,VWS V14.01,2013-01-07 23:09:00,
2013-01-07 18:14:00,38.7,21.2,30.18,WSW,248,0.0,1.1,49,0.00,,---,0.00,VWS V14.01,2013-01-07 23:14:00,
2013-01-07 18:19:00,38.7,21.2,30.18,WSW,248,0.0,0.0,49,0.00,,---,0.00,VWS V14.01,2013-01-07 23:19:00,
2013-01-07 18:24:00,38.3,20.8,30.18,WSW,248,0.0,0.0,49,0.00,,---,0.00,VWS V14.01,2013-01-07 23:24:00,
2013-01-07 18:29:00,37.9,21.0,30.18,West,270,0.0,0.0,50,0.00,,---,0.00,VWS V14.01,2013-01-07 23:29:00,
2013-01-07 18:34:00,38.1,21.1,30.21,WSW,248,0.0,1.3,50,0.00,,---,0.00,VWS V14.01,2013-01-07 23:34:00,
2013-01-07 18:38:00,37.8,20.8,30.21,WSW,248,0.0,0.0,50,0.00,,---,0.00,VWS V14.01,2013-01-07 23:38:00,
2013-01-07 18:43:00,37.6,20.6,30.21,WSW,248,0.0,0.0,50,0.00,,---,0.00,VWS V14.01,2013-01-07 23:43:00,
2013-01-07 18:48:00,37.4,20.5,30.21,WSW,248,0.0,0.0,50,0.00,,---,0.00,VWS V14.01,2013-01-07 23:48:00,
2013-01-07 18:53:00,37.4,20.9,30.21,WSW,248,2.5,2.5,51,0.00,,---,0.00,VWS V14.01,2013-01-07 23:53:00,
2013-01-07 18:58:00,37.2,20.8,30.21,WSW,248,1.6,1.6,51,0.00,,---,0.00,VWS V14.01,2013-01-07 23:58:00,
2013-01-07 19:03:00,37.0,20.6,30.21,WSW,248,0.9,0.9,51,0.00,,---,0.00,VWS V14.01,2013-01-08 00:03:00,
2013-01-07 19:08:00,37.0,20.6,30.21,SSW,202,1.3,2.2,51,0.00,,---,0.00,VWS V14.01,2013-01-08 00:08:00,
2013-01-07 19:13:00,37.0,20.6,30.21,SW,225,0.0,0.0,51,0.00,,---,0.00,VWS V14.01,2013-01-08 00:13:00,
2013-01-07 19:18:00,37.0,21.1,30.21,SW,225,1.6,1.6,52,0.00,,---,0.00,VWS V14.01,2013-01-08 00:18:00,
2013-01-07 19:23:00,36.9,20.9,30.21,West,270,0.0,2.5,52,0.00,,---,0.00,VWS V14.01,2013-01-08 00:23:00,
2013-01-07 19:28:00,36.9,20.9,30.21,WSW,248,1.1,1.6,52,0.00,,---,0.00,VWS V14.01,2013-01-08 00:28:00,
2013-01-07 19:33:00,36.7,20.7,30.21,WSW,248,0.0,0.0,52,0.00,,---,0.00,VWS V14.01,2013-01-08 00:33:00,
2013-01-07 19:38:00,36.5,20.6,30.21,SSW,202,0.0,1.6,52,0.00,,---,0.00,VWS V14.01,2013-01-08 00:38:00,
2013-01-07 19:43:00,36.3,20.4,30.21,WSW,248,0.0,0.0,52,0.00,,---,0.00,VWS V14.01,2013-01-08 00:43:00,
2013-01-07 19:48:00,36.1,20.2,30.21,WSW,248,0.0,0.0,52,0.00,,---,0.00,VWS V14.01,2013-01-08 00:48:00,
2013-01-07 19:53:00,35.6,20.2,30.21,WSW,248,0.0,0.0,53,0.00,,---,0.00,VWS V14.01,2013-01-08 00:53:00,
2013-01-07 19:58:00,35.2,20.3,30.21,WSW,248,0.0,0.0,54,0.00,,---,0.00,VWS V14.01,2013-01-08 00:58:00,
2013-01-07 20:03:00,35.1,20.1,30.21,WSW,248,0.0,0.0,54,0.00,,---,0.00,VWS V14.01,2013-01-08 01:03:00,
2013-01-07 20:08:00,34.3,20.3,30.21,East,90,2.0,2.0,56,0.00,,---,0.00,VWS V14.01,2013-01-08 01:08:00,
2013-01-07 20:13:00,34.2,19.7,30.21,SSE,158,0.0,0.9,55,0.00,,---,0.00,VWS V14.01,2013-01-08 01:13:00,
2013-01-07 20:18:00,34.0,20.0,30.21,SSW,202,0.0,0.0,56,0.00,,---,0.00,VWS V14.01,2013-01-08 01:18:00,
2013-01-07 20:23:00,33.6,19.6,30.21,SSW,202,0.0,0.0,56,0.00,,---,0.00,VWS V14.01,2013-01-08 01:23:00,
2013-01-07 20:28:00,33.4,19.9,30.21,ESE,112,2.0,2.0,57,0.00,,---,0.00,VWS V14.01,2013-01-08 01:28:00,
2013-01-07 20:33:00,33.8,19.8,30.18,SE,135,1.6,1.6,56,0.00,,---,0.00,VWS V14.01,2013-01-08 01:33:00,
2013-01-07 20:38:00,33.8,19.8,30.18,SSE,158,0.0,0.0,56,0.00,,---,0.00,VWS V14.01,2013-01-08 01:38:00,
2013-01-07 20:43:00,33.6,20.0,30.18,SSE,158,0.0,0.0,57,0.00,,---,0.00,VWS V14.01,2013-01-08 01:43:00,
2013-01-07 20:48:00,33.8,20.2,30.18,SSW,202,1.6,1.6,57,0.00,,---,0.00,VWS V14.01,2013-01-08 01:48:00,
2013-01-07 20:53:00,34.0,20.4,30.18,WSW,248,2.5,2.5,57,0.00,,---,0.00,VWS V14.01,2013-01-08 01:53:00,
2013-01-07 20:58:00,33.6,20.4,30.18,WSW,248,2.9,3.1,58,0.00,,---,0.00,VWS V14.01,2013-01-08 01:58:00,
2013-01-07 21:03:00,33.6,20.4,30.18,WSW,248,1.1,1.1,58,0.00,,---,0.00,VWS V14.01,2013-01-08 02:03:00,
2013-01-07 21:08:00,33.4,20.3,30.18,WSW,248,1.1,1.6,58,0.00,,---,0.00,VWS V14.01,2013-01-08 02:08:00,
2013-01-07 21:13:00,33.3,20.1,30.21,WSW,248,0.0,0.0,58,0.00,,---,0.00,VWS V14.01,2013-01-08 02:13:00,
2013-01-07 21:18:00,33.3,20.5,30.21,SSW,202,1.3,1.3,59,0.00,,---,0.00,VWS V14.01,2013-01-08 02:18:00,
2013-01-07 21:23:00,33.1,20.3,30.21,WNW,292,4.0,4.0,59,0.00,,---,0.00,VWS V14.01,2013-01-08 02:23:00,
2013-01-07 21:28:00,33.3,20.5,30.21,WSW,248,3.6,3.6,59,0.00,,---,0.00,VWS V14.01,2013-01-08 02:28:00,
2013-01-07 21:33:00,33.6,20.8,30.21,WSW,248,3.6,3.6,59,0.00,,---,0.00,VWS V14.01,2013-01-08 02:33:00,
2013-01-07 21:38:00,33.8,21.0,30.21,WSW,248,3.4,3.6,59,0.00,,---,0.00,VWS V14.01,2013-01-08 02:38:00,
2013-01-07 21:43:00,33.8,21.0,30.21,WSW,248,2.7,3.1,59,0.00,,---,0.00,VWS V14.01,2013-01-08 02:43:00,
2013-01-07 21:48:00,34.0,21.2,30.21,West,270,3.8,3.8,59,0.00,,---,0.00,VWS V14.01,2013-01-08 02:48:00,
2013-01-07 21:53:00,34.2,21.3,30.21,West,270,4.0,4.0,59,0.00,,---,0.00,VWS V14.01,2013-01-08 02:53:00,
2013-01-07 21:58:00,34.2,21.3,30.21,WSW,248,3.8,4.3,59,0.00,,---,0.00,VWS V14.01,2013-01-08 02:58:00,
2013-01-07 22:03:00,34.2,21.3,30.18,West,270,2.9,2.9,59,0.00,,---,0.00,VWS V14.01,2013-01-08 03:03:00,
2013-01-07 22:08:00,34.2,21.3,30.18,WSW,248,2.9,2.9,59,0.00,,---,0.00,VWS V14.01,2013-01-08 03:08:00,
2013-01-07 22:13:00,34.0,21.2,30.18,WSW,248,3.8,3.8,59,0.00,,---,0.00,VWS V14.01,2013-01-08 03:13:00,
2013-01-07 22:18:00,34.0,21.2,30.21,WNW,292,1.3,3.1,59,0.00,,---,0.00,VWS V14.01,2013-01-08 03:18:00,
2013-01-07 22:23:00,33.8,21.0,30.21,WSW,248,2.5,2.5,59,0.00,,---,0.00,VWS V14.01,2013-01-08 03:23:00,
2013-01-07 22:28:00,33.8,21.0,30.21,WSW,248,3.1,3.1,59,0.00,,---,0.00,VWS V14.01,2013-01-08 03:28:00,
2013-01-07 22:33:00,33.6,21.2,30.21,West,270,2.0,2.7,60,0.00,,---,0.00,VWS V14.01,2013-01-08 03:33:00,
2013-01-07 22:38:00,33.6,21.2,30.21,WSW,248,2.2,2.2,60,0.00,,---,0.00,VWS V14.01,2013-01-08 03:38:00,
2013-01-07 22:43:00,33.6,21.2,30.21,West,270,2.9,2.9,60,0.00,,---,0.00,VWS V14.01,2013-01-08 03:43:00,
2013-01-07 22:48:00,33.4,21.1,30.21,WSW,248,1.6,2.7,60,0.00,,---,0.00,VWS V14.01,2013-01-08 03:48:00,
2013-01-07 22:53:00,33.6,21.6,30.21,WSW,248,1.6,2.7,61,0.00,,---,0.00,VWS V14.01,2013-01-08 03:53:00,
2013-01-07 22:58:00,33.6,21.6,30.21,WSW,248,2.7,2.7,61,0.00,,---,0.00,VWS V14.01,2013-01-08 03:58:00,
2013-01-07 23:03:00,33.4,21.5,30.21,WNW,292,1.3,1.6,61,0.00,,---,0.00,VWS V14.01,2013-01-08 04:03:00,
2013-01-07 23:08:00,33.3,21.3,30.21,WSW,248,1.3,1.6,61,0.00,,---,0.00,VWS V14.01,2013-01-08 04:08:00,
2013-01-07 23:13:00,33.3,21.3,30.21,West,270,1.6,1.6,61,0.00,,---,0.00,VWS V14.01,2013-01-08 04:13:00,
2013-01-07 23:18:00,33.3,21.3,30.21,WSW,248,2.0,3.4,61,0.00,,---,0.00,VWS V14.01,2013-01-08 04:18:00,
2013-01-07 23:23:00,33.1,21.1,30.21,WSW,248,2.0,2.7,61,0.00,,---,0.00,VWS V14.01,2013-01-08 04:23:00,
2013-01-07 23:28:00,32.7,21.1,30.21,West,270,2.0,2.0,62,0.00,,---,0.00,VWS V14.01,2013-01-08 04:28:00,
2013-01-07 23:33:00,32.7,21.1,30.21,WSW,248,1.3,1.3,62,0.00,,---,0.00,VWS V14.01,2013-01-08 04:33:00,
2013-01-07 23:38:00,32.5,21.0,30.21,WSW,248,2.2,2.2,62,0.00,,---,0.00,VWS V14.01,2013-01-08 04:38:00,
2013-01-07 23:43:00,32.4,20.8,30.21,WSW,248,3.4,3.4,62,0.00,,---,0.00,VWS V14.01,2013-01-08 04:43:00,
2013-01-07 23:48:00,32.4,21.2,30.21,WSW,248,2.5,2.9,63,0.00,,---,0.00,VWS V14.01,2013-01-08 04:48:00,
2013-01-07 23:53:00,32.4,21.2,30.21,WSW,248,2.0,2.0,63,0.00,,---,0.00,VWS V14.01,2013-01-08 04:53:00,
2013-01-07 23:58:00,32.2,21.0,30.21,WSW,248,2.9,2.9,63,0.00,,---,0.00,VWS V14.01,2013-01-08 04:58:00,